owner,sensor,date,latitude,longitude,vertical_datum,direction_of_sea_water_velocity,sea_water_speed,upward_sea_water_velocity,qcFlag 
TABS,ioos:station:wmo:42047:1,2011-08-01T00:00:00Z,27.8966,-93.5973,2.0,93.38378979,21.34721762,-99999.0,'11111222,11111222,99999999' 
TABS,ioos:station:wmo:42047:1,2011-08-01T00:30:00Z,27.8966,-93.5973,2.0,95.94516463,21.14372247,-99999.0,'11111222,11111222,99999999' 
TABS,ioos:station:wmo:42047:1,2011-08-01T01:00:00Z,27.8966,-93.5973,2.0,90.60395664,20.87115953,-99999.0,'11111222,11111222,99999999' 
TABS,ioos:station:wmo:42047:1,2011-08-01T01:30:00Z,27.8966,-93.5973,2.0,86.11812079,23.04286658,-99999.0,'11111222,11111222,99999999' 
TABS,ioos:station:wmo:42047:1,2011-08-01T02:00:00Z,27.8966,-93.5973,2.0,81.98356613,24.9538474,-99999.0,'11111222,11111222,99999999' 
TABS,ioos:station:wmo:42047:1,2011-08-01T02:30:00Z,27.8966,-93.5973,2.0,86.46992875,25.49838034,-99999.0,'11111222,11111222,99999999' 
TABS,ioos:station:wmo:42047:1,2011-08-01T03:00:00Z,27.8966,-93.5973,2.0,93.20784696,29.48620186,-99999.0,'11111222,11111222,99999999' 
TABS,ioos:station:wmo:42047:1,2011-08-01T03:30:00Z,27.8966,-93.5973,2.0,95.31624054,31.08370795,-99999.0,'11111222,11111222,99999999' 
TABS,ioos:station:wmo:42047:1,2011-08-01T04:00:00Z,27.8966,-93.5973,2.0,105.2430566,29.24900853,-99999.0,'11111222,11111222,99999999' 
TABS,ioos:station:wmo:42047:1,2011-08-01T04:30:00Z,27.8966,-93.5973,2.0,103.904327,26.34186402,-99999.0,'11111222,11111222,99999999' 
TABS,ioos:station:wmo:42047:1,2011-08-01T05:00:00Z,27.8966,-93.5973,2.0,115.8431923,28.4003169,-99999.0,'11111222,11111222,99999999' 
TABS,ioos:station:wmo:42047:1,2011-08-01T05:30:00Z,27.8966,-93.5973,2.0,111.2793442,26.70038389,-99999.0,'11111222,11111222,99999999' 
TABS,ioos:station:wmo:42047:1,2011-08-01T06:00:00Z,27.8966,-93.5973,2.0,112.9234544,25.98190332,-99999.0,'11111222,11111222,99999999' 
TABS,ioos:station:wmo:42047:1,2011-08-01T06:30:00Z,27.8966,-93.5973,2.0,114.2660335,24.5270463,-99999.0,'11111222,11111222,99999999' 
TABS,ioos:station:wmo:42047:1,2011-08-01T07:00:00Z,27.8966,-93.5973,2.0,116.1329848,23.72535563,-99999.0,'11111222,11111222,99999999' 
TABS,ioos:station:wmo:42047:1,2011-08-01T07:30:00Z,27.8966,-93.5973,2.0,116.4702508,24.34186928,-99999.0,'11111222,11111222,99999999' 
TABS,ioos:station:wmo:42047:1,2011-08-01T08:00:00Z,27.8966,-93.5973,2.0,116.9431389,25.07134021,-99999.0,'11111222,11111222,99999999' 
TABS,ioos:station:wmo:42047:1,2011-08-01T08:30:00Z,27.8966,-93.5973,2.0,120.1780543,20.0123362,-99999.0,'11111222,11111222,99999999' 
TABS,ioos:station:wmo:42047:1,2011-08-01T09:00:00Z,27.8966,-93.5973,2.0,128.1024833,19.43049665,-99999.0,'11111222,11111222,99999999' 
TABS,ioos:station:wmo:42047:1,2011-08-01T09:30:00Z,27.8966,-93.5973,2.0,128.4557183,18.86122477,-99999.0,'11111222,11111222,99999999' 
TABS,ioos:station:wmo:42047:1,2011-08-01T10:00:00Z,27.8966,-93.5973,2.0,135.80135,16.68228102,-99999.0,'11111222,11111222,99999999' 
TABS,ioos:station:wmo:42047:1,2011-08-01T10:30:00Z,27.8966,-93.5973,2.0,139.2749135,18.5920682,-99999.0,'11111222,11111222,99999999' 
TABS,ioos:station:wmo:42047:1,2011-08-01T11:00:00Z,27.8966,-93.5973,2.0,150.3733978,10.80220811,-99999.0,'11111222,11111222,99999999' 
TABS,ioos:station:wmo:42047:1,2011-08-01T11:30:00Z,27.8966,-93.5973,2.0,140.8224164,12.9645131,-99999.0,'11111222,11111222,99999999' 
TABS,ioos:station:wmo:42047:1,2011-08-01T12:00:00Z,27.8966,-93.5973,2.0,139.915418,12.62586631,-99999.0,'11111222,11111222,99999999' 
TABS,ioos:station:wmo:42047:1,2011-08-01T12:30:00Z,27.8966,-93.5973,2.0,138.7664769,12.48619237,-99999.0,'11111222,11111222,99999999' 
TABS,ioos:station:wmo:42047:1,2011-08-01T13:00:00Z,27.8966,-93.5973,2.0,146.5545944,11.68486628,-99999.0,'11111222,11111222,99999999' 
TABS,ioos:station:wmo:42047:1,2011-08-01T13:30:00Z,27.8966,-93.5973,2.0,141.8202661,10.06262888,-99999.0,'11111222,11111222,99999999' 
TABS,ioos:station:wmo:42047:1,2011-08-01T14:00:00Z,27.8966,-93.5973,2.0,141.8130688,8.702298547,-99999.0,'11133222,11111222,99999999' 
TABS,ioos:station:wmo:42047:1,2011-08-01T14:30:00Z,27.8966,-93.5973,2.0,146.495644,8.550748505,-99999.0,'11133222,11111222,99999999' 
TABS,ioos:station:wmo:42047:1,2011-08-01T15:00:00Z,27.8966,-93.5973,2.0,143.7414708,6.746384217,-99999.0,'11133222,11111222,99999999' 
TABS,ioos:station:wmo:42047:1,2011-08-01T15:30:00Z,27.8966,-93.5973,2.0,126.1725358,4.930365098,-99999.0,'11133222,11111222,99999999' 
TABS,ioos:station:wmo:42047:1,2011-08-01T16:00:00Z,27.8966,-93.5973,2.0,141.5407881,4.903886214,-99999.0,'11133222,11111222,99999999' 
TABS,ioos:station:wmo:42047:1,2011-08-01T16:30:00Z,27.8966,-93.5973,2.0,112.1354401,5.095566701,-99999.0,'11133222,11111222,99999999' 
TABS,ioos:station:wmo:42047:1,2011-08-01T17:00:00Z,27.8966,-93.5973,2.0,68.85515167,4.213703834,-99999.0,'11133222,11111222,99999999' 
TABS,ioos:station:wmo:42047:1,2011-08-01T17:30:00Z,27.8966,-93.5973,2.0,58.25478681,4.903600718,-99999.0,'11133222,11111222,99999999' 
TABS,ioos:station:wmo:42047:1,2011-08-01T18:00:00Z,27.8966,-93.5973,2.0,64.94330565,7.815529413,-99999.0,'11133222,11111222,99999999' 
TABS,ioos:station:wmo:42047:1,2011-08-01T18:30:00Z,27.8966,-93.5973,2.0,54.10528261,8.579242391,-99999.0,'11133222,11111222,99999999' 
TABS,ioos:station:wmo:42047:1,2011-08-01T19:00:00Z,27.8966,-93.5973,2.0,56.9419229,9.807695958,-99999.0,'11133222,11111222,99999999' 
TABS,ioos:station:wmo:42047:1,2011-08-01T19:30:00Z,27.8966,-93.5973,2.0,62.62777613,11.74499468,-99999.0,'11111222,11111222,99999999' 
TABS,ioos:station:wmo:42047:1,2011-08-01T20:00:00Z,27.8966,-93.5973,2.0,55.63192216,14.2956252,-99999.0,'11111222,11111222,99999999' 
TABS,ioos:station:wmo:42047:1,2011-08-01T20:30:00Z,27.8966,-93.5973,2.0,50.10337767,12.87796568,-99999.0,'11111222,11111222,99999999' 
TABS,ioos:station:wmo:42047:1,2011-08-01T21:00:00Z,27.8966,-93.5973,2.0,48.25145802,15.70891467,-99999.0,'11111222,11111222,99999999' 
TABS,ioos:station:wmo:42047:1,2011-08-01T21:30:00Z,27.8966,-93.5973,2.0,53.705379936317,18.126913692077,-99999.0,'1111122,1111122,1199999999' 
TABS,ioos:station:wmo:42047:1,2011-08-01T22:00:00Z,27.8966,-93.5973,2.0,52.072860803925,17.34295245914,-99999.0,'1111122,1111122,1199999999' 
TABS,ioos:station:wmo:42047:1,2011-08-01T22:30:00Z,27.8966,-93.5973,2.0,55.203973721732,19.398706142421,-99999.0,'1111122,1111122,1199999999' 
TABS,ioos:station:wmo:42047:1,2011-08-01T23:00:00Z,27.8966,-93.5973,2.0,54.686826423541,19.877336340667,-99999.0,'1111122,1111122,1199999999' 
TABS,ioos:station:wmo:42047:1,2011-08-01T23:30:00Z,27.8966,-93.5973,2.0,59.674754335908,22.776426409777,-99999.0,'1111122,1111122,1199999999' 
TABS,ioos:station:wmo:42047:1,2011-08-02T00:00:00Z,27.8966,-93.5973,2.0,59.65167262,21.07839178,-99999.0,'11111222,11111222,99999999' 
TABS,ioos:station:wmo:42047:1,2011-08-02T00:30:00Z,27.8966,-93.5973,2.0,69.13561195,20.44036203,-99999.0,'11111222,11111222,99999999' 
TABS,ioos:station:wmo:42047:1,2011-08-02T01:00:00Z,27.8966,-93.5973,2.0,74.55931128,19.49359382,-99999.0,'11111222,11111222,99999999' 
TABS,ioos:station:wmo:42047:1,2011-08-02T01:30:00Z,27.8966,-93.5973,2.0,82.41818361,17.73505004,-99999.0,'11111222,11111222,99999999' 
TABS,ioos:station:wmo:42047:1,2011-08-02T02:00:00Z,27.8966,-93.5973,2.0,85.92709081,19.28871432,-99999.0,'11111222,11111222,99999999' 
TABS,ioos:station:wmo:42047:1,2011-08-02T02:30:00Z,27.8966,-93.5973,2.0,94.16226935,19.70196437,-99999.0,'11111222,11111222,99999999' 
TABS,ioos:station:wmo:42047:1,2011-08-02T03:00:00Z,27.8966,-93.5973,2.0,97.33858918,18.6326273,-99999.0,'11111222,11111222,99999999' 
TABS,ioos:station:wmo:42047:1,2011-08-02T03:30:00Z,27.8966,-93.5973,2.0,94.0106003,16.87131589,-99999.0,'11111222,11111222,99999999' 
TABS,ioos:station:wmo:42047:1,2011-08-02T04:00:00Z,27.8966,-93.5973,2.0,100.0426834,17.20359265,-99999.0,'11111222,11111222,99999999' 
TABS,ioos:station:wmo:42047:1,2011-08-02T04:30:00Z,27.8966,-93.5973,2.0,87.9850168,14.78914467,-99999.0,'11111222,11111222,99999999' 
TABS,ioos:station:wmo:42047:1,2011-08-02T05:00:00Z,27.8966,-93.5973,2.0,88.2430158,14.67690022,-99999.0,'11111222,11111222,99999999' 
TABS,ioos:station:wmo:42047:1,2011-08-02T05:30:00Z,27.8966,-93.5973,2.0,76.69051164,17.59252398,-99999.0,'11111222,11111222,99999999' 
TABS,ioos:station:wmo:42047:1,2011-08-02T06:00:00Z,27.8966,-93.5973,2.0,68.87018494,23.60721288,-99999.0,'11111222,11111222,99999999' 
TABS,ioos:station:wmo:42047:1,2011-08-02T06:30:00Z,27.8966,-93.5973,2.0,70.13261235,23.2753131,-99999.0,'11111222,11111222,99999999' 
TABS,ioos:station:wmo:42047:1,2011-08-02T07:00:00Z,27.8966,-93.5973,2.0,72.86973853,22.91664242,-99999.0,'11111222,11111222,99999999' 
TABS,ioos:station:wmo:42047:1,2011-08-02T07:30:00Z,27.8966,-93.5973,2.0,79.25821705,23.33896742,-99999.0,'11111222,11111222,99999999' 
TABS,ioos:station:wmo:42047:1,2011-08-02T08:00:00Z,27.8966,-93.5973,2.0,81.03899346,23.11209424,-99999.0,'11111222,11111222,99999999' 
TABS,ioos:station:wmo:42047:1,2011-08-02T08:30:00Z,27.8966,-93.5973,2.0,87.95279253,22.67447243,-99999.0,'11111222,11111222,99999999' 
TABS,ioos:station:wmo:42047:1,2011-08-02T09:00:00Z,27.8966,-93.5973,2.0,93.63144257,18.15645615,-99999.0,'11111222,11111222,99999999' 
TABS,ioos:station:wmo:42047:1,2011-08-02T09:30:00Z,27.8966,-93.5973,2.0,102.9205022,15.0715958,-99999.0,'11111222,11111222,99999999' 
TABS,ioos:station:wmo:42047:1,2011-08-02T10:00:00Z,27.8966,-93.5973,2.0,92.20824961,15.57156383,-99999.0,'11111222,11111222,99999999' 
TABS,ioos:station:wmo:42047:1,2011-08-02T10:30:00Z,27.8966,-93.5973,2.0,100.0333995,14.34945644,-99999.0,'11111222,11111222,99999999' 
TABS,ioos:station:wmo:42047:1,2011-08-02T11:00:00Z,27.8966,-93.5973,2.0,105.7143823,11.92574107,-99999.0,'11111222,11111222,99999999' 
TABS,ioos:station:wmo:42047:1,2011-08-02T11:30:00Z,27.8966,-93.5973,2.0,106.8343692,11.77459129,-99999.0,'11111222,11111222,99999999' 
TABS,ioos:station:wmo:42047:1,2011-08-02T12:00:00Z,27.8966,-93.5973,2.0,101.7583391,11.77713463,-99999.0,'11111222,11111222,99999999' 
TABS,ioos:station:wmo:42047:1,2011-08-02T12:30:00Z,27.8966,-93.5973,2.0,114.7626666,9.669069242,-99999.0,'11133222,11111222,99999999' 
TABS,ioos:station:wmo:42047:1,2011-08-02T13:00:00Z,27.8966,-93.5973,2.0,128.8243916,8.150742297,-99999.0,'11133222,11111222,99999999' 
TABS,ioos:station:wmo:42047:1,2011-08-02T13:30:00Z,27.8966,-93.5973,2.0,111.2959177,6.525588096,-99999.0,'11133222,11111222,99999999' 
TABS,ioos:station:wmo:42047:1,2011-08-02T14:00:00Z,27.8966,-93.5973,2.0,91.94747873,6.47373926,-99999.0,'11133222,11111222,99999999' 
TABS,ioos:station:wmo:42047:1,2011-08-02T14:30:00Z,27.8966,-93.5973,2.0,109.4643913,6.512180894,-99999.0,'11133222,11111222,99999999' 
TABS,ioos:station:wmo:42047:1,2011-08-02T15:00:00Z,27.8966,-93.5973,2.0,119.8156846,7.019131,-99999.0,'11133222,11111222,99999999' 
TABS,ioos:station:wmo:42047:1,2011-08-02T15:30:00Z,27.8966,-93.5973,2.0,126.380117,5.850213671,-99999.0,'11133222,11111222,99999999' 
TABS,ioos:station:wmo:42047:1,2011-08-02T16:00:00Z,27.8966,-93.5973,2.0,102.5796626,6.106594796,-99999.0,'11133222,11111222,99999999' 
TABS,ioos:station:wmo:42047:1,2011-08-02T16:30:00Z,27.8966,-93.5973,2.0,133.5075602,3.52966004,-99999.0,'11133222,11111222,99999999' 
TABS,ioos:station:wmo:42047:1,2011-08-02T17:00:00Z,27.8966,-93.5973,2.0,143.7548771,3.484207227,-99999.0,'11133222,11111222,99999999' 
TABS,ioos:station:wmo:42047:1,2011-08-02T17:30:00Z,27.8966,-93.5973,2.0,104.571335,3.89529203,-99999.0,'11133222,11111222,99999999' 
TABS,ioos:station:wmo:42047:1,2011-08-02T18:00:00Z,27.8966,-93.5973,2.0,114.8373379,3.85673437,-99999.0,'11133222,11111222,99999999' 
TABS,ioos:station:wmo:42047:1,2011-08-02T18:30:00Z,27.8966,-93.5973,2.0,79.10313473,1.904337155,-99999.0,'11133222,11111222,99999999' 
TABS,ioos:station:wmo:42047:1,2011-08-02T19:00:00Z,27.8966,-93.5973,2.0,90.0,2.81,-99999.0,'11133222,11111222,99999999' 
TABS,ioos:station:wmo:42047:1,2011-08-02T19:30:00Z,27.8966,-93.5973,2.0,32.30746937,0.804549563,-99999.0,'11133222,11111222,99999999' 
TABS,ioos:station:wmo:42047:1,2011-08-02T20:00:00Z,27.8966,-93.5973,2.0,122.3289438,5.254493315,-99999.0,'11133222,11111222,99999999' 
TABS,ioos:station:wmo:42047:1,2011-08-02T20:30:00Z,27.8966,-93.5973,2.0,117.0270407,5.545628909,-99999.0,'11133222,11111222,99999999' 
TABS,ioos:station:wmo:42047:1,2011-08-02T21:00:00Z,27.8966,-93.5973,2.0,107.2441746,6.847809869,-99999.0,'11133222,11111222,99999999' 
TABS,ioos:station:wmo:42047:1,2011-08-02T21:30:00Z,27.8966,-93.5973,2.0,141.6297592,7.104435234,-99999.0,'11133222,11111222,99999999' 
TABS,ioos:station:wmo:42047:1,2011-08-02T22:00:00Z,27.8966,-93.5973,2.0,140.04887412279,5.5440147907451,-99999.0,'1111122,1111122,1199999999' 
TABS,ioos:station:wmo:42047:1,2011-08-02T22:30:00Z,27.8966,-93.5973,2.0,125.05159468139,3.1515869018639,-99999.0,'1111122,1111122,1199999999' 
TABS,ioos:station:wmo:42047:1,2011-08-02T23:00:00Z,27.8966,-93.5973,2.0,121.82744657667,1.0239628899526,-99999.0,'1111122,1111122,1199999999' 
TABS,ioos:station:wmo:42047:1,2011-08-02T23:30:00Z,27.8966,-93.5973,2.0,36.064386157418,1.1381124724736,-99999.0,'1111122,1111122,1199999999' 
TABS,ioos:station:wmo:42047:1,2011-08-03T00:00:00Z,27.8966,-93.5973,2.0,24.80281261,2.908264087,-99999.0,'11133222,11111222,99999999' 
TABS,ioos:station:wmo:42047:1,2011-08-03T00:30:00Z,27.8966,-93.5973,2.0,78.61856387,1.570891467,-99999.0,'11133222,11111222,99999999' 
TABS,ioos:station:wmo:42047:1,2011-08-03T01:00:00Z,27.8966,-93.5973,2.0,69.74044218,4.071916011,-99999.0,'11133222,11111222,99999999' 
TABS,ioos:station:wmo:42047:1,2011-08-03T01:30:00Z,27.8966,-93.5973,2.0,75.96378935,3.422177669,-99999.0,'11133222,11111222,99999999' 
TABS,ioos:station:wmo:42047:1,2011-08-03T02:00:00Z,27.8966,-93.5973,2.0,51.22591974,4.694592634,-99999.0,'11133222,11111222,99999999' 
TABS,ioos:station:wmo:42047:1,2011-08-03T02:30:00Z,27.8966,-93.5973,2.0,58.54585929,6.611512686,-99999.0,'11133222,11111222,99999999' 
TABS,ioos:station:wmo:42047:1,2011-08-03T03:00:00Z,27.8966,-93.5973,2.0,66.00684554,7.574483481,-99999.0,'11133222,11111222,99999999' 
TABS,ioos:station:wmo:42047:1,2011-08-03T03:30:00Z,27.8966,-93.5973,2.0,66.33165445,10.08861239,-99999.0,'11111222,11111222,99999999' 
TABS,ioos:station:wmo:42047:1,2011-08-03T04:00:00Z,27.8966,-93.5973,2.0,52.84217981,12.33415583,-99999.0,'11111222,11111222,99999999' 
TABS,ioos:station:wmo:42047:1,2011-08-03T04:30:00Z,27.8966,-93.5973,2.0,60.20628034,14.53067445,-99999.0,'11111222,11111222,99999999' 
TABS,ioos:station:wmo:42047:1,2011-08-03T05:00:00Z,27.8966,-93.5973,2.0,54.21250861,15.45875804,-99999.0,'11111222,11111222,99999999' 
TABS,ioos:station:wmo:42047:1,2011-08-03T05:30:00Z,27.8966,-93.5973,2.0,59.96027583,19.03710325,-99999.0,'11111222,11111222,99999999' 
TABS,ioos:station:wmo:42047:1,2011-08-03T06:00:00Z,27.8966,-93.5973,2.0,73.56906504,21.07049359,-99999.0,'11111222,11111222,99999999' 
TABS,ioos:station:wmo:42047:1,2011-08-03T06:30:00Z,27.8966,-93.5973,2.0,77.08995808,21.84212673,-99999.0,'11111222,11111222,99999999' 
TABS,ioos:station:wmo:42047:1,2011-08-03T07:00:00Z,27.8966,-93.5973,2.0,81.49691812,21.50640137,-99999.0,'11111222,11111222,99999999' 
TABS,ioos:station:wmo:42047:1,2011-08-03T07:30:00Z,27.8966,-93.5973,2.0,86.40946288,20.11949304,-99999.0,'11111222,11111222,99999999' 
TABS,ioos:station:wmo:42047:1,2011-08-03T08:00:00Z,27.8966,-93.5973,2.0,80.92488761,20.92189284,-99999.0,'11111222,11111222,99999999' 
TABS,ioos:station:wmo:42047:1,2011-08-03T08:30:00Z,27.8966,-93.5973,2.0,85.85710776,19.24027547,-99999.0,'11111222,11111222,99999999' 
TABS,ioos:station:wmo:42047:1,2011-08-03T09:00:00Z,27.8966,-93.5973,2.0,91.34729729,22.9663493,-99999.0,'11111222,11111222,99999999' 
TABS,ioos:station:wmo:42047:1,2011-08-03T09:30:00Z,27.8966,-93.5973,2.0,101.7930903,19.76724816,-99999.0,'11111222,11111222,99999999' 
TABS,ioos:station:wmo:42047:1,2011-08-03T10:00:00Z,27.8966,-93.5973,2.0,117.9463891,20.59122629,-99999.0,'11111222,11111222,99999999' 
TABS,ioos:station:wmo:42047:1,2011-08-03T10:30:00Z,27.8966,-93.5973,2.0,127.8723685,19.88904472,-99999.0,'11111222,11111222,99999999' 
TABS,ioos:station:wmo:42047:1,2011-08-03T11:00:00Z,27.8966,-93.5973,2.0,138.0413785,22.25571612,-99999.0,'11111222,11111222,99999999' 
TABS,ioos:station:wmo:42047:1,2011-08-03T11:30:00Z,27.8966,-93.5973,2.0,143.8727053,22.37187967,-99999.0,'11111222,11111222,99999999' 
TABS,ioos:station:wmo:42047:1,2011-08-03T12:00:00Z,27.8966,-93.5973,2.0,152.4297168,21.67083293,-99999.0,'11111222,11111222,99999999' 
TABS,ioos:station:wmo:42047:1,2011-08-03T12:30:00Z,27.8966,-93.5973,2.0,154.910328,20.49365024,-99999.0,'11111222,11111222,99999999' 
TABS,ioos:station:wmo:42047:1,2011-08-03T13:00:00Z,27.8966,-93.5973,2.0,159.393362,19.94616003,-99999.0,'11111222,11111222,99999999' 
TABS,ioos:station:wmo:42047:1,2011-08-03T13:30:00Z,27.8966,-93.5973,2.0,165.4278002,20.230781,-99999.0,'11111222,11111222,99999999' 
TABS,ioos:station:wmo:42047:1,2011-08-03T14:00:00Z,27.8966,-93.5973,2.0,163.091601,21.00814366,-99999.0,'11111222,11111222,99999999' 
TABS,ioos:station:wmo:42047:1,2011-08-03T14:30:00Z,27.8966,-93.5973,2.0,157.9530073,23.84350016,-99999.0,'11111222,11111222,99999999' 
TABS,ioos:station:wmo:42047:1,2011-08-03T15:00:00Z,27.8966,-93.5973,2.0,158.6778615,22.41421201,-99999.0,'11111222,11111222,99999999' 
TABS,ioos:station:wmo:42047:1,2011-08-03T15:30:00Z,27.8966,-93.5973,2.0,162.1415615,23.25024301,-99999.0,'11111222,11111222,99999999' 
TABS,ioos:station:wmo:42047:1,2011-08-03T16:00:00Z,27.8966,-93.5973,2.0,161.9714694,21.39018466,-99999.0,'11111222,11111222,99999999' 
TABS,ioos:station:wmo:42047:1,2011-08-03T16:30:00Z,27.8966,-93.5973,2.0,179.6830832,19.90030402,-99999.0,'11111222,11111222,99999999' 
TABS,ioos:station:wmo:42047:1,2011-08-03T17:00:00Z,27.8966,-93.5973,2.0,172.8830184,17.27307732,-99999.0,'11111222,11111222,99999999' 
TABS,ioos:station:wmo:42047:1,2011-08-03T17:30:00Z,27.8966,-93.5973,2.0,183.9898748,16.23936267,-99999.0,'11111222,11111222,99999999' 
TABS,ioos:station:wmo:42047:1,2011-08-03T18:00:00Z,27.8966,-93.5973,2.0,179.9349388,17.67001132,-99999.0,'11111222,11111222,99999999' 
TABS,ioos:station:wmo:42047:1,2011-08-03T18:30:00Z,27.8966,-93.5973,2.0,184.0255866,16.38041819,-99999.0,'11111222,11111222,99999999' 
TABS,ioos:station:wmo:42047:1,2011-08-03T19:00:00Z,27.8966,-93.5973,2.0,189.7273453,15.6246472,-99999.0,'11111222,11111222,99999999' 
TABS,ioos:station:wmo:42047:1,2011-08-03T19:30:00Z,27.8966,-93.5973,2.0,183.866774,15.12443387,-99999.0,'11111222,11111222,99999999' 
TABS,ioos:station:wmo:42047:1,2011-08-03T20:00:00Z,27.8966,-93.5973,2.0,192.0252706,14.44704122,-99999.0,'11111222,11111222,99999999' 
TABS,ioos:station:wmo:42047:1,2011-08-03T20:30:00Z,27.8966,-93.5973,2.0,193.0927134,12.22787798,-99999.0,'11111222,11111222,99999999' 
TABS,ioos:station:wmo:42047:1,2011-08-03T21:00:00Z,27.8966,-93.5973,2.0,202.8450429,11.92547693,-99999.0,'11111222,11111222,99999999' 
TABS,ioos:station:wmo:42047:1,2011-08-03T21:30:00Z,27.8966,-93.5973,2.0,200.9724952,12.06960231,-99999.0,'11111222,11111222,99999999' 
TABS,ioos:station:wmo:42047:1,2011-08-03T22:00:00Z,27.8966,-93.5973,2.0,190.2175365,14.71334428,-99999.0,'11111222,11111222,99999999' 
TABS,ioos:station:wmo:42047:1,2011-08-03T22:30:00Z,27.8966,-93.5973,2.0,201.7545359,11.41283926,-99999.0,'11111222,11111222,99999999' 
TABS,ioos:station:wmo:42047:1,2011-08-03T23:00:00Z,27.8966,-93.5973,2.0,199.27438735663,12.087522492223,-99999.0,'1111122,1111122,1199999999' 
TABS,ioos:station:wmo:42047:1,2011-08-03T23:30:00Z,27.8966,-93.5973,2.0,192.90361563036,12.269849224828,-99999.0,'1111122,1111122,1199999999' 
TABS,ioos:station:wmo:42047:1,2011-08-04T00:00:00Z,27.8966,-93.5973,2.0,201.9662885,12.88545304,-99999.0,'11111222,11111222,99999999' 
TABS,ioos:station:wmo:42047:1,2011-08-04T00:30:00Z,27.8966,-93.5973,2.0,191.7290769,12.59295438,-99999.0,'11111222,11111222,99999999' 
TABS,ioos:station:wmo:42047:1,2011-08-04T01:00:00Z,27.8966,-93.5973,2.0,201.6313969,11.9086943,-99999.0,'11111222,11111222,99999999' 
TABS,ioos:station:wmo:42047:1,2011-08-04T01:30:00Z,27.8966,-93.5973,2.0,189.1697674,11.92236973,-99999.0,'11111222,11111222,99999999' 
TABS,ioos:station:wmo:42047:1,2011-08-04T02:00:00Z,27.8966,-93.5973,2.0,201.3623897,8.729793812,-99999.0,'11133222,11111222,99999999' 
TABS,ioos:station:wmo:42047:1,2011-08-04T02:30:00Z,27.8966,-93.5973,2.0,189.5627527,10.29303648,-99999.0,'11111222,11111222,99999999' 
TABS,ioos:station:wmo:42047:1,2011-08-04T03:00:00Z,27.8966,-93.5973,2.0,188.6286254,7.798269039,-99999.0,'11133222,11111222,99999999' 
TABS,ioos:station:wmo:42047:1,2011-08-04T03:30:00Z,27.8966,-93.5973,2.0,173.0085538,7.969253415,-99999.0,'11133222,11111222,99999999' 
TABS,ioos:station:wmo:42047:1,2011-08-04T04:00:00Z,27.8966,-93.5973,2.0,189.9837695,8.305781119,-99999.0,'11133222,11111222,99999999' 
TABS,ioos:station:wmo:42047:1,2011-08-04T04:30:00Z,27.8966,-93.5973,2.0,182.3323349,4.914071632,-99999.0,'11133222,11111222,99999999' 
TABS,ioos:station:wmo:42047:1,2011-08-04T05:00:00Z,27.8966,-93.5973,2.0,167.0720397,5.140291821,-99999.0,'11133222,11111222,99999999' 
TABS,ioos:station:wmo:42047:1,2011-08-04T05:30:00Z,27.8966,-93.5973,2.0,113.3108805,2.67865638,-99999.0,'11133222,11111222,99999999' 
TABS,ioos:station:wmo:42047:1,2011-08-04T06:00:00Z,27.8966,-93.5973,2.0,130.0727963,4.939716591,-99999.0,'11133222,11111222,99999999' 
TABS,ioos:station:wmo:42047:1,2011-08-04T06:30:00Z,27.8966,-93.5973,2.0,121.6961423,5.500409076,-99999.0,'11133222,11111222,99999999' 
TABS,ioos:station:wmo:42047:1,2011-08-04T07:00:00Z,27.8966,-93.5973,2.0,148.9711689,4.539570464,-99999.0,'11133222,11111222,99999999' 
TABS,ioos:station:wmo:42047:1,2011-08-04T07:30:00Z,27.8966,-93.5973,2.0,107.4893036,5.55687862,-99999.0,'11133222,11111222,99999999' 
TABS,ioos:station:wmo:42047:1,2011-08-04T08:00:00Z,27.8966,-93.5973,2.0,113.9624329,6.992689039,-99999.0,'11133222,11111222,99999999' 
TABS,ioos:station:wmo:42047:1,2011-08-04T08:30:00Z,27.8966,-93.5973,2.0,112.7799532,8.806957477,-99999.0,'11133222,11111222,99999999' 
TABS,ioos:station:wmo:42047:1,2011-08-04T09:00:00Z,27.8966,-93.5973,2.0,105.9961333,10.85011521,-99999.0,'11111222,11111222,99999999' 
TABS,ioos:station:wmo:42047:1,2011-08-04T09:30:00Z,27.8966,-93.5973,2.0,112.2960418,10.75401785,-99999.0,'11111222,11111222,99999999' 
TABS,ioos:station:wmo:42047:1,2011-08-04T10:00:00Z,27.8966,-93.5973,2.0,111.9449024,14.82410537,-99999.0,'11111222,11111222,99999999' 
TABS,ioos:station:wmo:42047:1,2011-08-04T10:30:00Z,27.8966,-93.5973,2.0,124.4249299,14.48718744,-99999.0,'11111222,11111222,99999999' 
TABS,ioos:station:wmo:42047:1,2011-08-04T11:00:00Z,27.8966,-93.5973,2.0,125.5682037,15.23193028,-99999.0,'11111222,11111222,99999999' 
TABS,ioos:station:wmo:42047:1,2011-08-04T11:30:00Z,27.8966,-93.5973,2.0,129.6073063,18.50912208,-99999.0,'11111222,11111222,99999999' 
TABS,ioos:station:wmo:42047:1,2011-08-04T12:00:00Z,27.8966,-93.5973,2.0,129.5209113,20.36579731,-99999.0,'11111222,11111222,99999999' 
TABS,ioos:station:wmo:42047:1,2011-08-04T12:30:00Z,27.8966,-93.5973,2.0,137.3094292,20.52984413,-99999.0,'11111222,11111222,99999999' 
TABS,ioos:station:wmo:42047:1,2011-08-04T13:00:00Z,27.8966,-93.5973,2.0,140.6919689,19.60574661,-99999.0,'11111222,11111222,99999999' 
TABS,ioos:station:wmo:42047:1,2011-08-04T13:30:00Z,27.8966,-93.5973,2.0,140.0580046,20.45138871,-99999.0,'11111222,11111222,99999999' 
TABS,ioos:station:wmo:42047:1,2011-08-04T14:00:00Z,27.8966,-93.5973,2.0,145.4454924,20.59281428,-99999.0,'11111222,11111222,99999999' 
TABS,ioos:station:wmo:42047:1,2011-08-04T14:30:00Z,27.8966,-93.5973,2.0,149.2783362,19.0656681,-99999.0,'11111222,11111222,99999999' 
TABS,ioos:station:wmo:42047:1,2011-08-04T15:00:00Z,27.8966,-93.5973,2.0,143.8334454,17.26730147,-99999.0,'11111222,11111222,99999999' 
TABS,ioos:station:wmo:42047:1,2011-08-04T15:30:00Z,27.8966,-93.5973,2.0,139.3147699,20.01836407,-99999.0,'11111222,11111222,99999999' 